Georgetown, SC

1:12 PM EDT on September 30, 2016 (GMT -0400)
Georgetown County

Weather History for KGGE - April, 2011

Change the Weather History Date:

Wednesday, April 20, 2011

  Actual Average Record
Temperature  
Mean Temperature 78 °F -  
Max Temperature 87 °F 77 °F 87 °F (2011)
Min Temperature 68 °F 52 °F 44 °F (2013)
Cooling Degree Days 12    
Growing Degree Days 28 (Base 50)    
Moisture  
Dew Point 63 °F    
Average Humidity 55    
Maximum Humidity 100    
Minimum Humidity 33    
Precipitation  
Precipitation 0.00 in - - ()
Sea Level Pressure  
Sea Level Pressure 30.09 in    
Wind  
Wind Speed 10 mph (SW)    
Max Wind Speed 17 mph    
Max Gust Speed 26 mph    
Visibility 10 miles    
Events      
Averages and records for this station are not official NWS values.
T = Trace of Precipitation, MM = Missing Value Source: NWS Daily Summary

Daily Weather History Graph

Daily Weather History Graph

Search for Another Location

Airport or City:

Trip Planner

Search our weather history database for the weather conditions in past years. The results will help you decide how hot, cold, wet, or windy it might be!

Date:

Astronomy

Apr. 20, 2011 Rise Set
Actual Time 6:41 AM EDT 7:51 PM EDT
Civil Twilight 6:15 AM EDT 8:17 PM EDT
Nautical Twilight 5:45 AM EDT 8:47 PM EDT
Astronomical Twilight 5:13 AM EDT 9:19 PM EDT
Moon 11:10 PM EDT (4/20) 8:22 AM EDT (4/20)
Length of Visible Light 14h 01m
Length of Day
13h 09m
Waning Gibbous, 91% of the Moon is Illuminated
Apr 20
Waning Gibbous
Apr 24
Last Quarter
May 3
New
May 10
First Quarter
May 17
Full

Hourly Weather History & Observations

Time (EDT) Temp. Heat Index Dew Point Humidity Pressure Visibility Wind Dir Wind Speed Gust Speed Precip Events Conditions
12:15 AM 68.0 °F - - N/A% 30.10 in 10.0 mi South 8.1 mph - N/A   Clear
12:35 AM 68.0 °F - - N/A% 30.10 in 10.0 mi SSW 6.9 mph - N/A   Clear
12:55 AM 68.0 °F - - N/A% 30.10 in 10.0 mi SSW 6.9 mph - N/A   Clear
1:15 AM 69.8 °F - - N/A% 30.09 in 10.0 mi South 8.1 mph - N/A   Clear
1:35 AM 69.8 °F - - N/A% 30.09 in 10.0 mi SSW 8.1 mph - N/A   Clear
1:55 AM 69.8 °F - - N/A% 30.08 in 10.0 mi SSW 9.2 mph - N/A   Clear
2:15 AM 69.8 °F - - N/A% 30.08 in 10.0 mi SSW 9.2 mph - N/A   Mostly Cloudy
2:35 AM 69.8 °F - - N/A% 30.07 in 10.0 mi SSW 10.4 mph 16.1 mph N/A   Mostly Cloudy
2:55 AM 69.8 °F - - N/A% 30.06 in 10.0 mi SSW 10.4 mph - N/A   Mostly Cloudy
3:35 AM 69.8 °F - - N/A% 30.05 in 10.0 mi SSW 8.1 mph - N/A   Overcast
3:55 AM 69.8 °F - - N/A% 30.04 in 10.0 mi SSW 10.4 mph - N/A   Overcast
4:15 AM 71.6 °F - - N/A% 30.05 in 10.0 mi SSW 10.4 mph 16.1 mph N/A   Overcast
4:35 AM 71.6 °F - - N/A% 30.05 in 10.0 mi SSW 12.7 mph 18.4 mph N/A   Overcast
4:55 AM 71.6 °F - - N/A% 30.05 in 10.0 mi SSW 12.7 mph 20.7 mph N/A   Overcast
5:15 AM 71.6 °F - - N/A% 30.05 in 10.0 mi SW 13.8 mph 19.6 mph N/A   Overcast
5:35 AM 71.6 °F - - N/A% 30.06 in 10.0 mi SSW 8.1 mph 17.3 mph N/A   Overcast
5:55 AM 71.6 °F - - N/A% 30.07 in 10.0 mi SW 12.7 mph 17.3 mph N/A   Overcast
6:15 AM 71.6 °F - - N/A% 30.07 in 10.0 mi SSW 12.7 mph 18.4 mph N/A   Overcast
6:35 AM 69.8 °F - - N/A% 30.08 in 10.0 mi SW 11.5 mph - N/A   Scattered Clouds
6:55 AM 69.8 °F - - N/A% 30.09 in 10.0 mi SW 11.5 mph 18.4 mph N/A   Clear
7:15 AM 69.8 °F - - N/A% 30.09 in 10.0 mi SSW 10.4 mph - N/A   Clear
7:35 AM 71.6 °F - - N/A% 30.10 in 10.0 mi SW 8.1 mph - N/A   Clear
7:55 AM 71.6 °F - - N/A% 30.10 in 10.0 mi SSW 9.2 mph - N/A   Clear
8:15 AM 71.6 °F - - N/A% 30.10 in 10.0 mi SW 9.2 mph - N/A   Clear
8:35 AM 73.4 °F - 73.4 °F 100% 30.11 in 10.0 mi SW 11.5 mph 17.3 mph N/A   Clear
8:55 AM 73.4 °F - 68.0 °F 83% 30.11 in 10.0 mi SW 10.4 mph - N/A   Clear
9:15 AM 75.2 °F - 68.0 °F 78% 30.12 in 10.0 mi SW 10.4 mph - N/A   Clear
9:35 AM 77.0 °F - 68.0 °F 74% 30.13 in 10.0 mi SW 9.2 mph - N/A   Clear
9:55 AM 77.0 °F - 66.2 °F 69% 30.13 in 10.0 mi WSW 11.5 mph - N/A   Clear
10:15 AM 78.8 °F - 64.4 °F 61% 30.14 in 10.0 mi WSW 10.4 mph - N/A   Clear
10:55 AM 80.6 °F 81.8 °F 62.6 °F 54% 30.15 in 10.0 mi SW 12.7 mph 17.3 mph N/A   Clear
11:15 AM 82.4 °F 82.9 °F 60.8 °F 48% 30.15 in 10.0 mi WSW 11.5 mph 18.4 mph N/A   Clear
11:35 AM 82.4 °F 82.5 °F 59.0 °F 45% 30.16 in 10.0 mi WSW 16.1 mph 19.6 mph N/A   Clear
11:55 AM 84.2 °F 83.8 °F 59.0 °F 42% 30.15 in 10.0 mi WSW 16.1 mph 21.9 mph N/A   Clear
12:15 PM 84.2 °F 83.8 °F 59.0 °F 42% 30.14 in 10.0 mi West 11.5 mph 20.7 mph N/A   Clear
12:35 PM 86.0 °F 84.5 °F 55.4 °F 35% 30.13 in 10.0 mi WSW 12.7 mph 20.7 mph N/A   Clear
12:55 PM 86.0 °F 84.5 °F 55.4 °F 35% 30.13 in 10.0 mi West 17.3 mph 23.0 mph N/A   Clear
1:15 PM 87.8 °F 86.1 °F 55.4 °F 33% 30.12 in 10.0 mi West 9.2 mph 19.6 mph N/A   Scattered Clouds
1:35 PM 87.8 °F 86.5 °F 57.2 °F 35% 30.11 in 10.0 mi West 12.7 mph 19.6 mph N/A   Clear
1:55 PM 87.8 °F 87.1 °F 59.0 °F 38% 30.11 in 10.0 mi West 16.1 mph 25.3 mph N/A   Clear
2:15 PM 87.8 °F 87.1 °F 59.0 °F 38% 30.10 in 10.0 mi West 16.1 mph 21.9 mph N/A   Scattered Clouds
2:35 PM 87.8 °F 87.1 °F 59.0 °F 38% 30.10 in 10.0 mi West 16.1 mph 26.5 mph N/A   Scattered Clouds
2:55 PM 87.8 °F 87.1 °F 59.0 °F 38% 30.09 in 10.0 mi WSW 12.7 mph 19.6 mph N/A   Clear
3:15 PM 87.8 °F 87.1 °F 59.0 °F 38% 30.08 in 10.0 mi West 13.8 mph - N/A   Clear
3:35 PM 87.8 °F 87.1 °F 59.0 °F 38% 30.06 in 10.0 mi WSW 10.4 mph 18.4 mph N/A   Clear
3:55 PM 86.0 °F 85.4 °F 59.0 °F 40% 30.04 in 10.0 mi WSW 6.9 mph - N/A   Clear
4:15 PM 86.0 °F 86.6 °F 62.6 °F 45% 30.03 in 10.0 mi SSE 9.2 mph - N/A   Clear
4:35 PM 82.4 °F 84.6 °F 66.2 °F 58% 30.03 in 10.0 mi South 10.4 mph - N/A   Clear
4:55 PM 82.4 °F 84.6 °F 66.2 °F 58% 30.04 in 10.0 mi SSW 9.2 mph - N/A   Clear
5:35 PM 82.4 °F 84.6 °F 66.2 °F 58% 30.04 in 10.0 mi SSW 8.1 mph - N/A   Clear
5:55 PM 82.4 °F 85.4 °F 68.0 °F 62% 30.04 in 10.0 mi SSW 8.1 mph - N/A   Clear
6:15 PM 80.6 °F 83.2 °F 68.0 °F 65% 30.04 in 10.0 mi SSW 10.4 mph - N/A   Clear
6:35 PM 78.8 °F - 68.0 °F 69% 30.05 in 10.0 mi SSW 5.8 mph - N/A   Clear
6:55 PM 77.0 °F - 68.0 °F 74% 30.05 in 10.0 mi SSW 5.8 mph - N/A   Clear
7:15 PM 77.0 °F - 68.0 °F 74% 30.05 in 10.0 mi SSW 5.8 mph - N/A   Clear
7:35 PM 75.2 °F - 66.2 °F 73% 30.05 in 10.0 mi SSW 5.8 mph - N/A   Clear
7:55 PM 73.4 °F - 66.2 °F 78% 30.05 in 10.0 mi SSW 4.6 mph - N/A   Clear
8:15 PM 71.6 °F - 66.2 °F 83% 30.06 in 10.0 mi SW 4.6 mph - N/A   Clear
8:35 PM 71.6 °F - 66.2 °F 83% 30.07 in 10.0 mi SSW 5.8 mph - N/A   Clear
8:55 PM 71.6 °F - 66.2 °F 83% 30.07 in 10.0 mi SSW 5.8 mph - N/A   Clear
9:15 PM 71.6 °F - 66.2 °F 83% 30.07 in 10.0 mi SSW 6.9 mph - N/A   Clear
9:35 PM 69.8 °F - 66.2 °F 88% 30.08 in 10.0 mi SSW 5.8 mph - N/A   Clear
9:55 PM 69.8 °F - 66.2 °F 88% 30.08 in 10.0 mi SW 5.8 mph - N/A   Clear
10:15 PM 69.8 °F - 68.0 °F 94% 30.09 in 10.0 mi SW 5.8 mph - N/A   Clear
10:35 PM 68.0 °F - 68.0 °F 100% 30.09 in 10.0 mi SW 5.8 mph - N/A   Clear
11:15 PM 68.0 °F - - N/A% 30.08 in 10.0 mi SW 4.6 mph - N/A   Clear
11:35 PM 66.2 °F - - N/A% 30.08 in 10.0 mi SW 4.6 mph - N/A   Clear
11:55 PM 64.4 °F - - N/A% 30.08 in 10.0 mi SW 3.5 mph - N/A   Clear